Regional Weather Roundup
Issued by NWS Charleston, SC

Current Version | Previous Version | Text Only | Print | Product List | Glossary Off
Versions: 1 2 3 4 5 6 7 8 9 10 11 12 13 14 15 16 17 18 19 20 21 22 23 24 25 26 27 28 29 30 31 32 33 34 35 36 37 38 39 40 41 42 43 44 45 46 47 48 49 50

000
ASUS42 KCHS 231312
RWRCHS

Regional Weather Roundup
National Weather Service Charleston SC
800 AM EST TUE JAN 23 2018

NOTE: "fair" indicates few or no clouds below 12,000 feet with no
significant weather and/or obstructions to visibility.

Not all stations are quality controlled. Use data with caution,
especially dewpoint observations.

SCZ027-030-031-034>040-042>050-231400-
...Southeast South Carolina...

CITY           SKY/WX    TMP DP  RH WIND       PRES   REMARKS
N Charleston   MOCLDY    65  62  90 SW14      29.92S
Waterfront Prk   N/A     60  60 100 SW7       29.79R
Mount Pleasant CLOUDY    64  63  94 S15G21    29.93S
Johns Island   CLOUDY    61  61 100 S10       29.94S FOG
Pinopolis        N/A     64  63  94 SW12G18   29.81S
Moncks Corner  CLOUDY    64  61  88 SW12G24   29.90F
Summerville    CLOUDY    64  61  88 S8        29.92S
Beaufort MCAS  CLOUDY    64  63  96 S7        29.94R
Beaufort Arpt  CLOUDY    59  59 100 S7        29.93S FOG
Hilton Head Is CLOUDY    61  59  94 SW12      29.95S FOG
Walterboro     CLOUDY    63  63 100 SW8       29.93R
Allendale      CLOUDY    66  63  88 VRB5      29.91R

...Southern Midlands and Pee Dee...

CITY           SKY/WX    TMP DP  RH WIND       PRES   REMARKS
Georgetown     CLOUDY    64  64 100 SW14G25   29.91F
Kingstree      CLOUDY    64  63  94 S7        29.88S
Orangeburg     CLOUDY    65  61  87 SW16      29.89R
Barnwell         N/A     66  64  94 SW8G14    29.90R
Aiken          CLOUDY    61  61 100 SW15G21   29.91R
Manning        CLOUDY    64  59  82 MISG      29.89R
Columbia       CLOUDY    66  64  93 SW13      29.85S
Sumter         CLOUDY    64  61  88 SW15G28   29.84S
Florence       CLOUDY    66  63  90 SW16G22   29.86R
Myrtle Beach   CLOUDY    67  63  87 SW16G22   29.91S
N Myrtle Beach LGT RAIN  57  57 100 SW16      29.90R FOG

$$

GAZ063-065-086>088-099>101-113>116-118-119-134>141-150-231400-
...Southeast Georgia...

CITY           SKY/WX    TMP DP  RH WIND       PRES   REMARKS
Savannah Arpt  CLOUDY    67  63  87 SW12      29.94S
Hunter AAF     MOCLDY    66  62  87 SW9       29.93R
Fort Stewart   CLOUDY    67  62  83 SW9       29.93S
Statesboro     CLOUDY    66  65  99 SW10G17   29.94R
Sylvania       CLOUDY    66  65  97 SW6       29.94R
Claxton        CLOUDY    66  65  94 S7        29.95R

...CSRA, Central and far Southeast Georgia...

CITY           SKY/WX    TMP DP  RH WIND       PRES   REMARKS
Thomson        CLOUDY    60  55  82 NW12      29.96R
Augusta-Bush   CLOUDY    65  62  90 SW8       29.89R
Augusta-Daniel CLOUDY    66  62  87 SW12G17   29.89R
Swainsboro     CLOUDY    64  63  94 SW8       29.94R
Vidalia        CLOUDY    64  64 100 SW9       29.95R
Eastman        CLOUDY    65  55  68 W17G23    29.99R
Hazlehurst     CLOUDY    66  65  97 SW9       29.96R
Alma           CLOUDY    65  62  90 SW6       29.97R
Waycross       CLOUDY    66  64  90 SW9       29.97R
Jesup          NOT AVBL
Baxley         CLOUDY    63  63 100 SW5       29.96S
Brunswick      CLOUDY    66  63  88 SW12G17   29.98S
Saint Simons   CLOUDY    66  65  96 S8        29.98R

$$

SCZ027-028-034-036>038-045-046-048>050-GAZ119-141-231400-
...Lake and Supplemental Coastal Observations...

STATION/POSITION TIME  TEMP    WIND        PRES    WAVE   SWELL
                       AIR SEA DIR/SP/G            HT/PER HT/PER/DIR
                 (UTC) (F)     (DEG/KT/KT) (MB)    (FT/S) (FT/S/D)
Winyah Bay       1145   65     230/ 15     1013.0
Lake Murray      1220   62     220/ 13/ 15 1009.8S
ACE Basin NERRS  1145   61        CALM     1014.0
Fort Pulaski     1248   57 48  210/  6/  9 1014.5R
Sapelo Island    1200   62     200/  8     1015.0

$$

ANZ835-935-AMZ111-154-330-350-352-354-370-450-454-472-231400-
...C-MAN and Buoy Observations...

STATION/POSITION TIME  TEMP    WIND        PRES    WAVE   SWELL
                       AIR SEA DIR/SP/G            HT/PER HT/PER/DIR
                 (UTC) (F)     (DEG/KT/KT) (MB)    (FT/S) (FT/S/D)
Buoy 41004       1250   68 69  220/ 25/ 31 1013.4F   6/ 7   3/180/ 7
Buoy 41008       1150   54 51  180/ 12/ 14 1014.7    4/ 6   3/100/ 6
Folly Beach CMAN 1200   55     220/ 12/ 14 1014.4R
Capers Nearshore 1208   53 53  220/ 14/ 19 1013.6F
Fripp Nearshore  1208   50 48  200/ 12/ 16 1013.0F


STATION/POSITION TIME  TEMP    WIND        PRES    WAVE   SWELL
                       AIR SEA DIR/SP/G            HT/PER HT/PER/DIR
                 (UTC) (F)     (DEG/KT/KT) (MB)    (FT/S) (FT/S/D)
5E St. Marys GA  1230      50                N/A     3/ 6
Frying Pan Buoy  1250   70 66  190/ 21/ 27 1012.7F   7/ 6
Buoy 41025       1250   72 70  180/ 29/ 39 1013.5F  10/ 7
Cape Lookout NC  1300          180/ 14/ 14 1013.1F
Buoy 41002       1150   70 70  170/ 16/ 19 1018.6    5/ 6   2/ 80/ 9
Buoy 41010       NOT AVBL
St Augustine FL  1300   66 53  210/  6/  8 1016.6S


$$




USA.gov is the U.S. government's official web portal to all federal, state and local government web resources and services.